Lanai Airport


Codes: PHNY/LNY
Name: Lanai Airport
City: Lanai City
Country: United States
Elevation: 1308 ft.
Wikipedia:

Photos at Lanai Airport


   Photos courtesy of SpottingLog. You can add your own sightings and photos by signing up for a free trial today.



No photos found.

Weather at Lanai Airport


Time (UTC)DescriptionTempratureWindCloud coverageVisibilityPressureHumidity
16-Jun-2024 00:00Overcast Clouds24°C4 mph, E100%10000m1019hPa64%
16-Jun-2024 03:00Broken Clouds24°C9 mph, E72%10000m1018hPa65%
16-Jun-2024 06:00Scattered Clouds23°C9 mph, NE45%10000m1018hPa71%
16-Jun-2024 09:00Scattered Clouds22°C4 mph, NE27%10000m1018hPa73%
16-Jun-2024 12:00Light Rain22°C7 mph, NE33%10000m1018hPa72%
16-Jun-2024 15:00Scattered Clouds22°C7 mph, NE30%10000m1017hPa72%
16-Jun-2024 18:00Few Clouds22°C7 mph, E16%10000m1018hPa70%
16-Jun-2024 21:00Clear Sky23°C2 mph, SE1%10000m1018hPa65%
17-Jun-2024 00:00Clear Sky24°C4 mph, E4%10000m1017hPa62%
17-Jun-2024 03:00Scattered Clouds23°C2 mph, E42%10000m1016hPa67%
17-Jun-2024 06:00Scattered Clouds22°C4 mph, NE27%10000m1018hPa70%
17-Jun-2024 09:00Clear Sky22°C7 mph, NE6%10000m1018hPa73%
17-Jun-2024 12:00Clear Sky22°C2 mph, NE4%10000m1017hPa74%
17-Jun-2024 15:00Few Clouds21°C4 mph, NE14%10000m1018hPa73%
17-Jun-2024 18:00Broken Clouds22°C2 mph, NE54%10000m1019hPa71%
17-Jun-2024 21:00Clear Sky23°C2 mph, N6%10000m1019hPa66%
18-Jun-2024 00:00Clear Sky24°C7 mph, E4%10000m1018hPa66%
18-Jun-2024 03:00Scattered Clouds23°C7 mph, NE26%10000m1017hPa69%
18-Jun-2024 06:00Few Clouds22°C7 mph, NE14%10000m1018hPa70%
18-Jun-2024 09:00Clear Sky22°C7 mph, NE6%10000m1019hPa71%
18-Jun-2024 12:00Clear Sky21°C4 mph, NE3%10000m1017hPa73%
18-Jun-2024 15:00Clear Sky21°C4 mph, NE0%10000m1017hPa73%
18-Jun-2024 18:00Clear Sky22°C4 mph, E0%10000m1018hPa70%
18-Jun-2024 21:00Clear Sky23°C2 mph, S7%10000m1018hPa65%
19-Jun-2024 00:00Scattered Clouds24°C4 mph, SE44%10000m1017hPa65%
19-Jun-2024 03:00Overcast Clouds23°C4 mph, E97%10000m1017hPa69%
19-Jun-2024 06:00Overcast Clouds23°C7 mph, E88%10000m1018hPa71%
19-Jun-2024 09:00Overcast Clouds22°C4 mph, NE86%10000m1018hPa73%
19-Jun-2024 12:00Broken Clouds22°C4 mph, N70%10000m1017hPa74%
19-Jun-2024 15:00Clear Sky22°C2 mph, NE5%10000m1017hPa73%
19-Jun-2024 18:00Few Clouds22°C2 mph, NE18%10000m1018hPa70%
19-Jun-2024 21:00Clear Sky23°C0 mph, E8%10000m1018hPa68%
20-Jun-2024 00:00Few Clouds24°C4 mph, SE14%10000m1017hPa68%
20-Jun-2024 03:00Broken Clouds23°C7 mph, E70%10000m1016hPa71%
20-Jun-2024 06:00Broken Clouds22°C7 mph, NE55%10000m1017hPa71%
20-Jun-2024 09:00Scattered Clouds22°C9 mph, NE36%10000m1019hPa71%
20-Jun-2024 12:00Scattered Clouds21°C7 mph, NE31%10000m1017hPa69%
20-Jun-2024 15:00Few Clouds21°C7 mph, NE15%10000m1017hPa67%
20-Jun-2024 18:00Few Clouds22°C7 mph, E14%10000m1018hPa65%
20-Jun-2024 21:00Broken Clouds23°C2 mph, NE55%10000m1018hPa63%